Weather Roundup
Issued by NWS Chicago, IL

Home | Current Version | Previous Version | Text Only | Print | Product List | Glossary Off
Versions: 1 2 3 4 5 6 7 8 9 10 11 12 13 14 15 16 17 18 19 20 21 22 23 24 25 26 27 28 29 30 31 32 33 34 35 36 37 38 39 40 41 42 43 44 45 46 47 48 49 50

000
NZUS59 KLOT 260021
HRRLOT

CHICAGO AREA WEATHER ROUNDUP
NATIONAL WEATHER SERVICE CHICAGO/ROMEOVILLE IL
700 PM CDT MON MAY 25 2015

NOTE: "FAIR" INDICATES FEW OR NO CLOUDS BELOW 12,000 FEET WITH NO
SIGNIFICANT WEATHER AND/OR OBSTRUCTIONS TO VISIBILITY.

* THESE STATIONS ARE NOT UNDER NWS QUALITY CONTROL. THEY ALSO MAY NOT
  REPORT WEATHER SUCH AS PRECIPITATION OR FOG.

ILZ005-006-012>014-019>023-260100-
NORTHEAST ILLINOIS

CITY           SKY/WX    TMP DP  RH WIND       PRES   REMARKS
OHARE          PTSUNNY   77  60  55 SW13G22   29.91S
6HR MIN TEMP:  70; 6HR MAX TEMP:  78; 6HR PCP: TRACE;

MIDWAY         PTSUNNY   81  61  50 SW12      29.92S HX  82
6HR MIN TEMP:  73; 6HR MAX TEMP:  81;

AURORA         MOSUNNY   78  59  51 SW13      29.92F
6HR MIN TEMP:  74; 6HR MAX TEMP:  80; 6HR PCP: TRACE;

LANSING*       PTSUNNY   78  53  41 SW14      29.94R
JOLIET*        MOSUNNY   80  61  53 SW6       29.92F HX  81
WAUKEGAN       MOSUNNY   77  59  53 SW15      29.90R
6HR MIN TEMP:  71; 6HR MAX TEMP:  78; 6HR PCP: TRACE;

DUPAGE AIRPORT MOSUNNY   77  60  55 SW14      29.91F
6HR MIN TEMP:  69; 6HR MAX TEMP:  79; 6HR PCP: TRACE;

WHEELING       MOSUNNY   78  59  51 S15       29.92S
6HR MIN TEMP:  72; 6HR MAX TEMP:  79;

KANKAKEE*      PTSUNNY   79  59  49 SW14G20   29.94F HX  80
MORRIS*        MOSUNNY   78  60  53 SW13      29.91F HX  80
LEWIS AIRPORT* MOSUNNY   77  59  53 SW10      29.92F
NORTHERLY IS     N/A     79  56  45 S8          N/A  HX  80
$$

WIZ051-052-058>065-066-070>072-260100-
SOUTHEAST WISCONSIN

CITY           SKY/WX    TMP DP  RH WIND       PRES   REMARKS
MILWAUKEE      PTSUNNY   76  60  57 SW21G28   29.87R
6HR MIN TEMP:  73; 6HR MAX TEMP:  79; 6HR PCP: TRACE;

KENOSHA*       MOSUNNY   77  61  57 SW15      29.89S
RACINE*        MOSUNNY   77  60  55 SW20G28   29.90R
BURLINGTON     SUNNY     75  60  60 SW17      29.88F
WAUKESHA       MOSUNNY   73  59  60 SW12G25   29.89R
WEST BEND      SUNNY     77  57  50 SW20G26   29.85S
$$

INZ001>003-010>013-019-020-260100-
NORTHWEST INDIANA

CITY           SKY/WX    TMP DP  RH WIND       PRES   REMARKS
GARY*          MOSUNNY   82  55  39 SW14      29.93F HX  82
MICHIGAN CITY* NOT AVBL
RENSSELAER*    NOT AVBL
VALPARAISO     CLOUDY    80  56  43 SW13      29.95F HX  80
$$

LMZ740>746-260100-
SOUTHERN LAKE MICHIGAN

STATION/POSITION TIME  SKY/WX   TEMP WIND        PRES    VSBY
                                AIR  DIR/SP/G
                 (UTC)          (F)  (DEG/KT/KT) (MB)    (MI)
HARRISON CRIB    0000            77  220/ 14/ 17   N/A
BURNHAM HARBOR   0000            79  200/  8/ 14   N/A
CALUMET HARBOR   2300            79  220/ 11/ 18   N/A
BURNS HARBOR     2300            78  230/ 15/ 20 1014.2S
MICHIGAN CITY    0000            78  190/ 13/ 15   N/A
$$

ABBREVIATIONS USED IN REMARKS
   TC - TEMPERATURE IN CELSIUS
  WCI - WIND CHILL INDEX
   HX - HEAT INDEX
  VSB - VISIBILITY
$$


USA.gov is the U.S. government's official web portal to all federal, state and local government web resources and services.